Regional Weather Roundup
Issued by NWS

Home | Current Version | Previous Version | Graphics & Text | Print | Product List | Glossary On
Versions: 1 2 3 4 5 6 7 8 9 10 11 12 13 14 15 16 17 18 19 20 21 22 23 24 25 26 27 28 29 30 31 32 33 34 35 36 37 38 39 40 41 42 43 44 45 46 47 48 49 50
523
ASUS45 KTFX 271710
RWRMT
MONTANA REGIONAL WEATHER ROUNDUP
NATIONAL WEATHER SERVICE GREAT FALLS MT
1000 AM MST MON FEB 27 2017

NOTE: "FAIR" INDICATES FEW OR NO CLOUDS BELOW 12000 FEET WITH NO
SIGNIFICANT WEATHER AND/OR OBSTRUCTIONS TO VISIBILITY.

MTZ001>007-043-271800-
WEST OF THE DIVIDE

CITY           SKY/WX    TMP DP  RH WIND       PRES   REMARKS
KALISPELL      LGT SNOW  17  12  80 NE6       29.63R WCI   9
MISSOULA       CLOUDY    24  19  81 SE8       29.61S WCI  15
BUTTE          CLOUDY    18   8  65 NW3       29.51F
MULLAN PASS    LGT SNOW  19  13  77 CALM      29.45S
ANACONDA         N/A     27  10  50 S8        29.53F WCI  18
DEER LODGE       N/A     18  12  79 CALM      29.57F
EUREKA           N/A     18  12  79 CALM      29.64S
HAMILTON         N/A     27  19  74 S9        29.58  WCI  17
LIBBY            N/A     21  18  86 CALM      29.62S
PLAINS           N/A     25  17  71 CALM      29.67S
$$

MTZ008-052>055-271800-
SOUTHWEST MONTANA

CITY           SKY/WX    TMP DP  RH WIND       PRES   REMARKS
BOZEMAN        SUNNY     19  13  77 E5        29.59S
DILLON         CLOUDY    21   9  59 S8        29.54R WCI  11
W YELLOWSTONE  LGT SNOW   9   7  92 NE5       29.55S
ENNIS          PTSUNNY   25  10  54 SW16      29.58S WCI  12
$$

MTZ009-010-012-014-046-048-049-054-271800-
EAST SLOPES AND CENTRAL MONTANA

CITY           SKY/WX    TMP DP  RH WIND       PRES   REMARKS
CUT BANK       CLOUDY    10   7  87 SE12      29.57F FOG     WCI  -5
GREAT FALLS    MOSUNNY   12   9  87 CALM      29.60S
MALMSTROM AFB  SUNNY      9   8  96 S3        29.63S
HELENA         CLOUDY    14   7  73 NW3       29.62S
AUGUSTA          N/A      8   6  94 SW7       29.53F WCI  -4
BOWMANS CRNR   FLURRIES   7   5  93 SW9       29.53F WCI  -7
CHOTEAU          N/A      9   7  92 CALM      29.59S
CONRAD           N/A     12   8  84 N5        29.65S
POWER          SNOWSHWR   8   6  89 SE9       29.58F FOG     WCI  -5
RAYNESFORD       N/A     11   7  82 SE15      29.58F WCI  -5
ULM              N/A      8   7  92 MISG      29.61F
$$

MTZ011-013-016-021-045-047-050-051-271800-
NORTH CENTRAL MONTANA

CITY           SKY/WX    TMP DP  RH WIND       PRES   REMARKS
HAVRE          CLOUDY    15  10  80 E12       29.71F WCI   2
LEWISTOWN      SUNNY     13   7  77 E12       29.59F WCI  -1
N BAR RANCH    PTSUNNY   10   5  79 CALM      29.63S
CHINOOK          N/A     12   7  79 E9        29.75F WCI   0
DENTON           N/A     14  10  83 S12       29.61S WCI   0
FORT BENTON      N/A     19  12  73 MISG      29.68F
GEYSER           N/A      8   5  89 NW3       29.59S
GRASS RANGE    FLURRIES  12  10  93 E5        29.62S
JUDITH GAP     FLURRIES  11   8  88 S17       29.58S WCI  -7
ROY            FLURRIES  13  11  93 MISG      29.64F
STANFORD         N/A      7   5  92 CALM      29.56F
WINIFRED       FLURRIES  13  11  94 E12       29.62F WCI  -1
$$

MTZ017>020-022>027-061-062-271800-
NORTHEAST MONTANA

CITY           SKY/WX    TMP DP  RH WIND       PRES   REMARKS
GLASGOW        CLOUDY    14   8  77 E10       29.79R WCI   1
JORDAN           N/A     19  13  77 NE8       29.74S WCI   9
SIDNEY         LGT SNOW  16  12  84 N15       29.82S VSB 1   WCI   1
WOLF POINT     LGT SNOW  13   6  74 E13       29.83S WCI  -2
PLENTYWOOD       N/A      7  -2  66 N6        29.83R WCI  -3
POPLAR           N/A     10   5  79 NE10      29.84S WCI  -3
$$

MTZ028>42-056>058-271800-
SOUTHCENTRAL AND SOUTHEAST MONTANA

CITY           SKY/WX    TMP DP  RH WIND       PRES   REMARKS
BAKER          PTSUNNY   26  19  74 SE10      29.66S WCI  16
BILLINGS       CLOUDY    21  15  78 NE3       29.65S
LIVINGSTON     CLOUDY    19  14  81 E7        29.56F WCI  10
MILES CITY     CLOUDY    23  17  78 NE14      29.69R WCI  11
BIG TIMBER     CLOUDY    19  16  86 CALM      29.61F
EKALAKA          N/A     29  15  55 W8        29.63  WCI  21
FORSYTH          N/A     21  18  86 N6        29.69S WCI  14
HARLOWTON      LGT SNOW  15  12  90 E10       29.61S WCI   2
LAUREL           N/A     22  12  65 CALM      29.65S
$$

REGIONAL REPORTS...DAKOTAS

CITY           SKY/WX    TMP DP  RH WIND       PRES   REMARKS
WILLISTON      LGT SNOW  11   6  81 NE12      29.85R WCI  -3
MINOT          LGT SNOW  12   6  77 NW12      29.86S WCI  -2
DICKINSON      CLOUDY    18  14  84 NE14      29.71F FOG     WCI   4
BEACH            N/A    N/A N/A N/A MISG        N/A
CROSBY           N/A      7   1  78 N7        29.88S WCI  -5
TIOGA            N/A      7   5  92 NE9       29.83S FOG     WCI  -7
WATFORD CITY   LGT SNOW  14   9  79 NE9       29.82S WCI   2
BISMARCK       CLOUDY    19  15  84 NE8       29.83R WCI   9
GRAND FORKS    CLOUDY    21  13  71 S3        29.91R
FARGO            N/A     26  16  65 SE6       29.90R WCI  19
BUFFALO SD       N/A     27  22  81 SE6       29.57F WCI  20
RAPID CITY     CLOUDY    30  17  58 S5        29.63F
$$

REGIONAL REPORTS...WYOMING/IDAHO/WASHINGTON

CITY           SKY/WX    TMP DP  RH WIND       PRES   REMARKS
GILLETTE       CLOUDY    32  18  56 SW9       29.57S WCI  24
SHERIDAN       CLOUDY    24  18  77 W13G20    29.61R WCI  12
BUFFALO WY     CLOUDY    28   8  43 N8        29.57R WCI  20
CODY           CLOUDY    28  14  55 NE9       29.55S WCI  19
YELLOWSTONE LA   N/A     11   8  88 CALM      29.54R
IDAHO FALLS    CLOUDY    24  22  91 CALM      29.63S
SALMON         CLOUDY    27  12  54 N6        29.60S WCI  20
BOISE          MOSUNNY   32  25  75 NW6       29.74R WCI  26
SPOKANE        SNOW      27  25  92 SW8       29.65R VSB 1/2 WCI  19
$$

REGIONAL REPORTS...ALBERTA

CITY           SKY/WX    TMP DP  RH WIND       PRES   REMARKS
EDMONTON       PTSUNNY   10   0  61 SW6       29.62R WCI   1
CALGARY        MOSUNNY    7   0  72 VRB2      29.53S
LETHBRIDGE     PTSUNNY   10   7  85 S8        29.59F WCI  -1
MEDICINE HAT   MOSUNNY    5   0  78 SE3       29.72F
WATERTON GATE    N/A      7   0  72 NE3         N/A
CARDSTON         N/A     12  -2  52 W5          N/A
MILK RIVER       N/A     12   7  79 S17         N/A  WCI  -5
$$

REGIONAL REPORTS...SASKATCHEWAN

CITY           SKY/WX    TMP DP  RH WIND       PRES   REMARKS
SWIFT CURRENT  SUNNY      5   3  92 S9        29.73S WCI  -9
REGINA         MOSUNNY    5  -2  72 W3        29.84S
SASKATOON      MOSUNNY    5  -2  72 SW12      29.83F WCI -11
CYPRESS HILLS    N/A      3   0  85 S8          N/A  WCI -10
VAL MARIE        N/A     12   7  79 E3          N/A
ROCKGLEN         N/A      5   0  78 S2          N/A
ASSINIBOIA       N/A     12   1  62 SW7         N/A  WCI   2
$$




USA.gov is the U.S. government's official web portal to all federal, state and local government web resources and services.